User: anonymous
Location: Enid
(36.3960°N, 97.8780°W)
Time: 18:55:17
(UTC-05:00)
Language:

HST - Orbit

View from above orbital plane
View from above orbital plane
View from above satellite
View from above satellite

Ground track
Ground track

The orbit data is extracted from the following two-line orbital elements,

1 20580U 90037B   14113.94504252  .00004670  00000-0  30717-3 0  4921
2 20580 028.4718 033.6770 0003033 067.4891 292.5970 15.05241103116539
Epoch (UTC): 23 April 2014 22:40:51
Eccentricity: 0.0003033
inclination: 28.4718°
perigee height: 548 km
apogee height: 553 km
right ascension of ascending node: 33.6770°
argument of perigee: 67.4891°
revolutions per day: 15.05241103
mean anomaly at epoch: 292.5970°
orbit number at epoch: 11653

The dashed part of the orbit path shows where the satellite is in the earth's shadow,  

DLR